カタログに戻る

CZ-6A DEB

運用中PO
NORAD 61102·DEBRIS·🇨🇳 China

打ち上げ Aug 6, 2024 から Taiyuan Satellite Launch Center

Loading…

次のパス (今後24時間)

TLE

最新Source: Space-Track

元期: Sep 14, 2026, 08:16 UTC

1 61102U 24140NU  26257.34507647  .00006554  00000-0  57994-3 0  9996
2 61102  88.7311 229.1149 0123469 159.7822 200.8361 14.90382279110521

AllMySatでCZ-6A DEBをリアルタイム追跡

Download on the App Store